owner,sensor,date,latitude,longitude,vertical_datum,sea_water_speed,direction_of_sea_water_velocity,upward_sea_water_velocity,qcFlag
Kerr-McGee,ioos:station:wmo:42373:1,2020-03-01T00:08:00Z,27.3539,-94.6254,79.0,35.3,272.6,-9999.0,'11111222,11111222,99999999'
Kerr-McGee,ioos:station:wmo:42373:1,2020-03-01T00:28:00Z,27.3539,-94.6254,79.0,36.7,271.9,-9999.0,'11111222,11111222,99999999'
Kerr-McGee,ioos:station:wmo:42373:1,2020-03-01T00:48:00Z,27.3539,-94.6254,79.0,35.7,271.1,-9999.0,'11111222,11111222,99999999'
Kerr-McGee,ioos:station:wmo:42373:1,2020-03-01T01:08:00Z,27.3539,-94.6254,79.0,34.6,271.0,-9999.0,'11111222,11111222,99999999'
Kerr-McGee,ioos:station:wmo:42373:1,2020-03-01T01:28:00Z,27.3539,-94.6254,79.0,33.8,271.5,-9999.0,'11111222,11111222,99999999'
Kerr-McGee,ioos:station:wmo:42373:1,2020-03-01T01:48:00Z,27.3539,-94.6254,79.0,31.6,272.2,-9999.0,'11111222,11111222,99999999'
Kerr-McGee,ioos:station:wmo:42373:1,2020-03-01T02:08:00Z,27.3539,-94.6254,79.0,30.7,271.9,-9999.0,'11111222,11111222,99999999'
Kerr-McGee,ioos:station:wmo:42373:1,2020-03-01T02:28:00Z,27.3539,-94.6254,79.0,30.1,270.4,-9999.0,'11111222,11111222,99999999'
Kerr-McGee,ioos:station:wmo:42373:1,2020-03-01T02:48:00Z,27.3539,-94.6254,79.0,31.7,269.3,-9999.0,'11111222,11111222,99999999'
Kerr-McGee,ioos:station:wmo:42373:1,2020-03-01T03:08:00Z,27.3539,-94.6254,79.0,30.7,273.7,-9999.0,'11111222,11111222,99999999'
Kerr-McGee,ioos:station:wmo:42373:1,2020-03-01T03:28:00Z,27.3539,-94.6254,79.0,30.4,268.9,-9999.0,'11111222,11111222,99999999'
Kerr-McGee,ioos:station:wmo:42373:1,2020-03-01T03:48:00Z,27.3539,-94.6254,79.0,29.9,267.5,-9999.0,'11111222,11111222,99999999'
Kerr-McGee,ioos:station:wmo:42373:1,2020-03-01T04:08:00Z,27.3539,-94.6254,79.0,30.6,268.5,-9999.0,'11111222,11111222,99999999'
Kerr-McGee,ioos:station:wmo:42373:1,2020-03-01T04:28:00Z,27.3539,-94.6254,79.0,29.1,272.2,-9999.0,'11111222,11111222,99999999'
Kerr-McGee,ioos:station:wmo:42373:1,2020-03-01T04:48:00Z,27.3539,-94.6254,79.0,26.6,277.3,-9999.0,'11111222,11111222,99999999'
Kerr-McGee,ioos:station:wmo:42373:1,2020-03-01T05:08:00Z,27.3539,-94.6254,79.0,26.9,278.1,-9999.0,'11111222,11111222,99999999'
Kerr-McGee,ioos:station:wmo:42373:1,2020-03-01T05:28:00Z,27.3539,-94.6254,79.0,26.0,281.1,-9999.0,'11111222,11111222,99999999'
Kerr-McGee,ioos:station:wmo:42373:1,2020-03-01T05:48:00Z,27.3539,-94.6254,79.0,28.1,277.4,-9999.0,'11111222,11111222,99999999'
Kerr-McGee,ioos:station:wmo:42373:1,2020-03-01T06:08:00Z,27.3539,-94.6254,79.0,26.6,279.1,-9999.0,'11111222,11111222,99999999'
Kerr-McGee,ioos:station:wmo:42373:1,2020-03-01T06:28:00Z,27.3539,-94.6254,79.0,28.5,278.5,-9999.0,'11111222,11111222,99999999'
Kerr-McGee,ioos:station:wmo:42373:1,2020-03-01T06:48:00Z,27.3539,-94.6254,79.0,28.6,279.9,-9999.0,'11111222,11111222,99999999'
Kerr-McGee,ioos:station:wmo:42373:1,2020-03-01T07:08:00Z,27.3539,-94.6254,79.0,27.9,282.0,-9999.0,'11111222,11111222,99999999'
Kerr-McGee,ioos:station:wmo:42373:1,2020-03-01T07:28:00Z,27.3539,-94.6254,79.0,28.4,279.9,-9999.0,'11111222,11111222,99999999'
Kerr-McGee,ioos:station:wmo:42373:1,2020-03-01T07:48:00Z,27.3539,-94.6254,79.0,27.9,279.9,-9999.0,'11111222,11111222,99999999'
Kerr-McGee,ioos:station:wmo:42373:1,2020-03-01T08:08:00Z,27.3539,-94.6254,79.0,29.0,282.1,-9999.0,'11111222,11111222,99999999'
Kerr-McGee,ioos:station:wmo:42373:1,2020-03-01T08:28:00Z,27.3539,-94.6254,79.0,28.6,282.9,-9999.0,'11111222,11111222,99999999'
Kerr-McGee,ioos:station:wmo:42373:1,2020-03-01T08:48:00Z,27.3539,-94.6254,79.0,29.7,282.1,-9999.0,'11111222,11111222,99999999'
Kerr-McGee,ioos:station:wmo:42373:1,2020-03-01T09:08:00Z,27.3539,-94.6254,79.0,27.5,283.7,-9999.0,'11111222,11111222,99999999'
Kerr-McGee,ioos:station:wmo:42373:1,2020-03-01T09:28:00Z,27.3539,-94.6254,79.0,26.8,285.1,-9999.0,'11111222,11111222,99999999'
Kerr-McGee,ioos:station:wmo:42373:1,2020-03-01T09:48:00Z,27.3539,-94.6254,79.0,25.2,286.6,-9999.0,'11111222,11111222,99999999'
Kerr-McGee,ioos:station:wmo:42373:1,2020-03-01T10:08:00Z,27.3539,-94.6254,79.0,27.1,284.8,-9999.0,'11111222,11111222,99999999'
Kerr-McGee,ioos:station:wmo:42373:1,2020-03-01T10:28:00Z,27.3539,-94.6254,79.0,23.9,286.0,-9999.0,'11111222,11111222,99999999'
Kerr-McGee,ioos:station:wmo:42373:1,2020-03-01T10:48:00Z,27.3539,-94.6254,79.0,25.3,284.4,-9999.0,'11111222,11111222,99999999'
Kerr-McGee,ioos:station:wmo:42373:1,2020-03-01T11:08:00Z,27.3539,-94.6254,79.0,24.7,282.9,-9999.0,'11111222,11111222,99999999'
Kerr-McGee,ioos:station:wmo:42373:1,2020-03-01T11:28:00Z,27.3539,-94.6254,79.0,24.4,287.9,-9999.0,'11111222,11111222,99999999'
Kerr-McGee,ioos:station:wmo:42373:1,2020-03-01T11:48:00Z,27.3539,-94.6254,79.0,22.2,284.8,-9999.0,'11111222,11111222,99999999'
Kerr-McGee,ioos:station:wmo:42373:1,2020-03-01T12:08:00Z,27.3539,-94.6254,79.0,22.5,286.3,-9999.0,'11111222,11111222,99999999'
Kerr-McGee,ioos:station:wmo:42373:1,2020-03-01T12:28:00Z,27.3539,-94.6254,79.0,20.7,289.1,-9999.0,'11111222,11111222,99999999'
Kerr-McGee,ioos:station:wmo:42373:1,2020-03-01T12:48:00Z,27.3539,-94.6254,79.0,22.8,286.3,-9999.0,'11111222,11111222,99999999'
Kerr-McGee,ioos:station:wmo:42373:1,2020-03-01T13:08:00Z,27.3539,-94.6254,79.0,21.7,288.5,-9999.0,'11111222,11111222,99999999'
Kerr-McGee,ioos:station:wmo:42373:1,2020-03-01T13:28:00Z,27.3539,-94.6254,79.0,20.3,289.6,-9999.0,'11111222,11111222,99999999'
Kerr-McGee,ioos:station:wmo:42373:1,2020-03-01T13:48:00Z,27.3539,-94.6254,79.0,21.6,284.7,-9999.0,'11111222,11111222,99999999'
Kerr-McGee,ioos:station:wmo:42373:1,2020-03-01T14:08:00Z,27.3539,-94.6254,79.0,20.2,286.4,-9999.0,'11111222,11111222,99999999'
Kerr-McGee,ioos:station:wmo:42373:1,2020-03-01T14:28:00Z,27.3539,-94.6254,79.0,20.4,284.4,-9999.0,'11111222,11111222,99999999'
Kerr-McGee,ioos:station:wmo:42373:1,2020-03-01T14:48:00Z,27.3539,-94.6254,79.0,18.1,281.5,-9999.0,'11111222,11111222,99999999'
Kerr-McGee,ioos:station:wmo:42373:1,2020-03-01T15:08:00Z,27.3539,-94.6254,79.0,16.9,282.6,-9999.0,'11111222,11111222,99999999'
Kerr-McGee,ioos:station:wmo:42373:1,2020-03-01T15:28:00Z,27.3539,-94.6254,79.0,17.1,270.0,-9999.0,'11111222,11111222,99999999'
Kerr-McGee,ioos:station:wmo:42373:1,2020-03-01T15:48:00Z,27.3539,-94.6254,79.0,17.4,276.9,-9999.0,'11111222,11111222,99999999'
Kerr-McGee,ioos:station:wmo:42373:1,2020-03-01T16:08:00Z,27.3539,-94.6254,79.0,17.1,273.3,-9999.0,'11111222,11111222,99999999'
Kerr-McGee,ioos:station:wmo:42373:1,2020-03-01T16:28:00Z,27.3539,-94.6254,79.0,17.0,272.7,-9999.0,'11111222,11111222,99999999'
Kerr-McGee,ioos:station:wmo:42373:1,2020-03-01T16:48:00Z,27.3539,-94.6254,79.0,16.9,262.2,-9999.0,'11111222,11111222,99999999'
Kerr-McGee,ioos:station:wmo:42373:1,2020-03-01T17:08:00Z,27.3539,-94.6254,79.0,16.2,263.6,-9999.0,'11111222,11111222,99999999'
Kerr-McGee,ioos:station:wmo:42373:1,2020-03-01T17:28:00Z,27.3539,-94.6254,79.0,16.0,260.0,-9999.0,'11111222,11111222,99999999'
Kerr-McGee,ioos:station:wmo:42373:1,2020-03-01T17:48:00Z,27.3539,-94.6254,79.0,15.1,255.0,-9999.0,'11111222,11111222,99999999'
Kerr-McGee,ioos:station:wmo:42373:1,2020-03-01T18:08:00Z,27.3539,-94.6254,79.0,16.9,256.0,-9999.0,'11111222,11111222,99999999'
Kerr-McGee,ioos:station:wmo:42373:1,2020-03-01T18:28:00Z,27.3539,-94.6254,79.0,19.4,250.7,-9999.0,'11111222,11111222,99999999'
Kerr-McGee,ioos:station:wmo:42373:1,2020-03-01T18:48:00Z,27.3539,-94.6254,79.0,21.5,253.8,-9999.0,'11111222,11111222,99999999'
Kerr-McGee,ioos:station:wmo:42373:1,2020-03-01T19:08:00Z,27.3539,-94.6254,79.0,21.5,254.6,-9999.0,'11111222,11111222,99999999'
Kerr-McGee,ioos:station:wmo:42373:1,2020-03-01T19:28:00Z,27.3539,-94.6254,79.0,21.4,256.2,-9999.0,'11111222,11111222,99999999'
Kerr-McGee,ioos:station:wmo:42373:1,2020-03-01T19:48:00Z,27.3539,-94.6254,79.0,22.8,254.0,-9999.0,'11111222,11111222,99999999'
Kerr-McGee,ioos:station:wmo:42373:1,2020-03-01T20:08:00Z,27.3539,-94.6254,79.0,24.2,250.7,-9999.0,'11111222,11111222,99999999'
Kerr-McGee,ioos:station:wmo:42373:1,2020-03-01T20:28:00Z,27.3539,-94.6254,79.0,24.3,247.8,-9999.0,'11111222,11111222,99999999'
Kerr-McGee,ioos:station:wmo:42373:1,2020-03-01T20:48:00Z,27.3539,-94.6254,79.0,25.4,243.5,-9999.0,'11111222,11111222,99999999'
Kerr-McGee,ioos:station:wmo:42373:1,2020-03-01T21:08:00Z,27.3539,-94.6254,79.0,25.9,246.1,-9999.0,'11111222,11111222,99999999'
Kerr-McGee,ioos:station:wmo:42373:1,2020-03-01T21:28:00Z,27.3539,-94.6254,79.0,26.3,244.8,-9999.0,'11111222,11111222,99999999'
Kerr-McGee,ioos:station:wmo:42373:1,2020-03-01T21:48:00Z,27.3539,-94.6254,79.0,27.2,242.9,-9999.0,'11111222,11111222,99999999'
Kerr-McGee,ioos:station:wmo:42373:1,2020-03-01T22:08:00Z,27.3539,-94.6254,79.0,27.8,242.3,-9999.0,'11111222,11111222,99999999'
Kerr-McGee,ioos:station:wmo:42373:1,2020-03-01T22:28:00Z,27.3539,-94.6254,79.0,28.4,244.2,-9999.0,'11111222,11111222,99999999'
Kerr-McGee,ioos:station:wmo:42373:1,2020-03-01T22:48:00Z,27.3539,-94.6254,79.0,29.4,244.0,-9999.0,'11111222,11111222,99999999'
Kerr-McGee,ioos:station:wmo:42373:1,2020-03-01T23:08:00Z,27.3539,-94.6254,79.0,29.1,245.0,-9999.0,'11111222,11111222,99999999'
Kerr-McGee,ioos:station:wmo:42373:1,2020-03-01T23:28:00Z,27.3539,-94.6254,79.0,27.5,245.8,-9999.0,'11111222,11111222,99999999'
Kerr-McGee,ioos:station:wmo:42373:1,2020-03-01T23:48:00Z,27.3539,-94.6254,79.0,28.9,246.5,-9999.0,'11111222,11111222,99999999'
Kerr-McGee,ioos:station:wmo:42373:1,2020-03-02T00:08:00Z,27.3539,-94.6254,79.0,28.4,244.5,-9999.0,'11111222,11111222,99999999'
Kerr-McGee,ioos:station:wmo:42373:1,2020-03-02T00:28:00Z,27.3539,-94.6254,79.0,27.5,241.6,-9999.0,'11111222,11111222,99999999'
Kerr-McGee,ioos:station:wmo:42373:1,2020-03-02T00:48:00Z,27.3539,-94.6254,79.0,26.7,240.7,-9999.0,'11111222,11111222,99999999'
Kerr-McGee,ioos:station:wmo:42373:1,2020-03-02T01:08:00Z,27.3539,-94.6254,79.0,27.2,237.0,-9999.0,'11111222,11111222,99999999'
Kerr-McGee,ioos:station:wmo:42373:1,2020-03-02T01:28:00Z,27.3539,-94.6254,79.0,28.4,234.9,-9999.0,'11111222,11111222,99999999'
Kerr-McGee,ioos:station:wmo:42373:1,2020-03-02T01:48:00Z,27.3539,-94.6254,79.0,24.2,238.9,-9999.0,'11111222,11111222,99999999'
Kerr-McGee,ioos:station:wmo:42373:1,2020-03-02T02:08:00Z,27.3539,-94.6254,79.0,24.1,246.5,-9999.0,'11111222,11111222,99999999'
Kerr-McGee,ioos:station:wmo:42373:1,2020-03-02T02:28:00Z,27.3539,-94.6254,79.0,25.3,248.7,-9999.0,'11111222,11111222,99999999'
Kerr-McGee,ioos:station:wmo:42373:1,2020-03-02T02:48:00Z,27.3539,-94.6254,79.0,25.9,250.2,-9999.0,'11111222,11111222,99999999'
Kerr-McGee,ioos:station:wmo:42373:1,2020-03-02T03:08:00Z,27.3539,-94.6254,79.0,25.9,252.3,-9999.0,'11111222,11111222,99999999'
Kerr-McGee,ioos:station:wmo:42373:1,2020-03-02T03:28:00Z,27.3539,-94.6254,79.0,25.8,252.6,-9999.0,'11111222,11111222,99999999'
Kerr-McGee,ioos:station:wmo:42373:1,2020-03-02T03:48:00Z,27.3539,-94.6254,79.0,27.2,255.1,-9999.0,'11111222,11111222,99999999'
Kerr-McGee,ioos:station:wmo:42373:1,2020-03-02T04:08:00Z,27.3539,-94.6254,79.0,27.0,255.4,-9999.0,'11111222,11111222,99999999'
Kerr-McGee,ioos:station:wmo:42373:1,2020-03-02T04:28:00Z,27.3539,-94.6254,79.0,26.7,256.8,-9999.0,'11111222,11111222,99999999'
Kerr-McGee,ioos:station:wmo:42373:1,2020-03-02T04:48:00Z,27.3539,-94.6254,79.0,26.5,257.8,-9999.0,'11111222,11111222,99999999'
Kerr-McGee,ioos:station:wmo:42373:1,2020-03-02T05:08:00Z,27.3539,-94.6254,79.0,27.5,260.2,-9999.0,'11111222,11111222,99999999'
Kerr-McGee,ioos:station:wmo:42373:1,2020-03-02T05:28:00Z,27.3539,-94.6254,79.0,26.2,261.2,-9999.0,'11111222,11111222,99999999'
Kerr-McGee,ioos:station:wmo:42373:1,2020-03-02T05:48:00Z,27.3539,-94.6254,79.0,29.2,261.1,-9999.0,'11111222,11111222,99999999'
Kerr-McGee,ioos:station:wmo:42373:1,2020-03-02T06:08:00Z,27.3539,-94.6254,79.0,27.9,262.6,-9999.0,'11111222,11111222,99999999'
Kerr-McGee,ioos:station:wmo:42373:1,2020-03-02T06:28:00Z,27.3539,-94.6254,79.0,26.6,262.0,-9999.0,'11111222,11111222,99999999'
Kerr-McGee,ioos:station:wmo:42373:1,2020-03-02T06:48:00Z,27.3539,-94.6254,79.0,25.4,261.6,-9999.0,'11111222,11111222,99999999'
Kerr-McGee,ioos:station:wmo:42373:1,2020-03-02T07:08:00Z,27.3539,-94.6254,79.0,23.6,264.9,-9999.0,'11111222,11111222,99999999'
Kerr-McGee,ioos:station:wmo:42373:1,2020-03-02T07:28:00Z,27.3539,-94.6254,79.0,24.6,267.0,-9999.0,'11111222,11111222,99999999'
Kerr-McGee,ioos:station:wmo:42373:1,2020-03-02T07:48:00Z,27.3539,-94.6254,79.0,25.2,267.5,-9999.0,'11111222,11111222,99999999'
Kerr-McGee,ioos:station:wmo:42373:1,2020-03-02T08:08:00Z,27.3539,-94.6254,79.0,23.7,267.3,-9999.0,'11111222,11111222,99999999'
Kerr-McGee,ioos:station:wmo:42373:1,2020-03-02T08:28:00Z,27.3539,-94.6254,79.0,25.0,268.4,-9999.0,'11111222,11111222,99999999'
Kerr-McGee,ioos:station:wmo:42373:1,2020-03-02T08:48:00Z,27.3539,-94.6254,79.0,24.2,264.8,-9999.0,'11111222,11111222,99999999'
Kerr-McGee,ioos:station:wmo:42373:1,2020-03-02T09:08:00Z,27.3539,-94.6254,79.0,24.2,263.3,-9999.0,'11111222,11111222,99999999'
Kerr-McGee,ioos:station:wmo:42373:1,2020-03-02T09:28:00Z,27.3539,-94.6254,79.0,24.5,263.0,-9999.0,'11111222,11111222,99999999'
Kerr-McGee,ioos:station:wmo:42373:1,2020-03-02T09:48:00Z,27.3539,-94.6254,79.0,23.4,261.4,-9999.0,'11111222,11111222,99999999'
Kerr-McGee,ioos:station:wmo:42373:1,2020-03-02T10:08:00Z,27.3539,-94.6254,79.0,24.9,262.2,-9999.0,'11111222,11111222,99999999'
Kerr-McGee,ioos:station:wmo:42373:1,2020-03-02T10:28:00Z,27.3539,-94.6254,79.0,23.9,261.1,-9999.0,'11111222,11111222,99999999'
Kerr-McGee,ioos:station:wmo:42373:1,2020-03-02T10:48:00Z,27.3539,-94.6254,79.0,22.6,261.6,-9999.0,'11111222,11111222,99999999'
Kerr-McGee,ioos:station:wmo:42373:1,2020-03-02T11:08:00Z,27.3539,-94.6254,79.0,22.5,260.3,-9999.0,'11111222,11111222,99999999'
Kerr-McGee,ioos:station:wmo:42373:1,2020-03-02T11:28:00Z,27.3539,-94.6254,79.0,22.8,259.9,-9999.0,'11111222,11111222,99999999'
Kerr-McGee,ioos:station:wmo:42373:1,2020-03-02T11:48:00Z,27.3539,-94.6254,79.0,23.0,262.0,-9999.0,'11111222,11111222,99999999'
Kerr-McGee,ioos:station:wmo:42373:1,2020-03-02T12:08:00Z,27.3539,-94.6254,79.0,21.7,259.9,-9999.0,'11111222,11111222,99999999'
Kerr-McGee,ioos:station:wmo:42373:1,2020-03-02T12:28:00Z,27.3539,-94.6254,79.0,20.9,260.1,-9999.0,'11111222,11111222,99999999'
Kerr-McGee,ioos:station:wmo:42373:1,2020-03-02T12:48:00Z,27.3539,-94.6254,79.0,20.7,260.5,-9999.0,'11111222,11111222,99999999'
Kerr-McGee,ioos:station:wmo:42373:1,2020-03-02T13:08:00Z,27.3539,-94.6254,79.0,22.4,258.9,-9999.0,'11111222,11111222,99999999'
Kerr-McGee,ioos:station:wmo:42373:1,2020-03-02T13:28:00Z,27.3539,-94.6254,79.0,22.2,257.0,-9999.0,'11111222,11111222,99999999'
Kerr-McGee,ioos:station:wmo:42373:1,2020-03-02T13:48:00Z,27.3539,-94.6254,79.0,21.7,257.8,-9999.0,'11111222,11111222,99999999'
Kerr-McGee,ioos:station:wmo:42373:1,2020-03-02T14:08:00Z,27.3539,-94.6254,79.0,22.0,257.7,-9999.0,'11111222,11111222,99999999'
Kerr-McGee,ioos:station:wmo:42373:1,2020-03-02T14:28:00Z,27.3539,-94.6254,79.0,21.5,256.5,-9999.0,'11111222,11111222,99999999'
Kerr-McGee,ioos:station:wmo:42373:1,2020-03-02T14:48:00Z,27.3539,-94.6254,79.0,21.9,256.5,-9999.0,'11111222,11111222,99999999'
Kerr-McGee,ioos:station:wmo:42373:1,2020-03-02T15:08:00Z,27.3539,-94.6254,79.0,22.2,255.7,-9999.0,'11111222,11111222,99999999'
Kerr-McGee,ioos:station:wmo:42373:1,2020-03-02T15:28:00Z,27.3539,-94.6254,79.0,22.1,254.8,-9999.0,'11111222,11111222,99999999'
Kerr-McGee,ioos:station:wmo:42373:1,2020-03-02T15:48:00Z,27.3539,-94.6254,79.0,22.8,254.2,-9999.0,'11111222,11111222,99999999'
Kerr-McGee,ioos:station:wmo:42373:1,2020-03-02T16:08:00Z,27.3539,-94.6254,79.0,21.8,253.7,-9999.0,'11111222,11111222,99999999'
Kerr-McGee,ioos:station:wmo:42373:1,2020-03-02T16:28:00Z,27.3539,-94.6254,79.0,22.1,251.8,-9999.0,'11111222,11111222,99999999'
Kerr-McGee,ioos:station:wmo:42373:1,2020-03-02T16:48:00Z,27.3539,-94.6254,79.0,22.0,251.2,-9999.0,'11111222,11111222,99999999'
Kerr-McGee,ioos:station:wmo:42373:1,2020-03-02T17:08:00Z,27.3539,-94.6254,79.0,21.6,251.6,-9999.0,'11111222,11111222,99999999'
Kerr-McGee,ioos:station:wmo:42373:1,2020-03-02T17:28:00Z,27.3539,-94.6254,79.0,21.1,250.6,-9999.0,'11111222,11111222,99999999'
Kerr-McGee,ioos:station:wmo:42373:1,2020-03-02T17:48:00Z,27.3539,-94.6254,79.0,21.3,251.1,-9999.0,'11111222,11111222,99999999'
Kerr-McGee,ioos:station:wmo:42373:1,2020-03-02T18:08:00Z,27.3539,-94.6254,79.0,21.0,249.1,-9999.0,'11111222,11111222,99999999'
Kerr-McGee,ioos:station:wmo:42373:1,2020-03-02T18:28:00Z,27.3539,-94.6254,79.0,21.3,248.8,-9999.0,'11111222,11111222,99999999'
Kerr-McGee,ioos:station:wmo:42373:1,2020-03-02T18:48:00Z,27.3539,-94.6254,79.0,21.4,248.3,-9999.0,'11111222,11111222,99999999'
Kerr-McGee,ioos:station:wmo:42373:1,2020-03-02T19:08:00Z,27.3539,-94.6254,79.0,22.3,246.8,-9999.0,'11111222,11111222,99999999'
Kerr-McGee,ioos:station:wmo:42373:1,2020-03-02T19:28:00Z,27.3539,-94.6254,79.0,22.3,246.0,-9999.0,'11111222,11111222,99999999'
Kerr-McGee,ioos:station:wmo:42373:1,2020-03-02T19:48:00Z,27.3539,-94.6254,79.0,22.7,243.9,-9999.0,'11111222,11111222,99999999'
Kerr-McGee,ioos:station:wmo:42373:1,2020-03-02T20:08:00Z,27.3539,-94.6254,79.0,22.5,242.0,-9999.0,'11111222,11111222,99999999'
Kerr-McGee,ioos:station:wmo:42373:1,2020-03-02T20:28:00Z,27.3539,-94.6254,79.0,23.5,242.3,-9999.0,'11111222,11111222,99999999'
Kerr-McGee,ioos:station:wmo:42373:1,2020-03-02T20:48:00Z,27.3539,-94.6254,79.0,23.1,243.0,-9999.0,'11111222,11111222,99999999'
Kerr-McGee,ioos:station:wmo:42373:1,2020-03-02T21:08:00Z,27.3539,-94.6254,79.0,23.6,241.4,-9999.0,'11111222,11111222,99999999'
Kerr-McGee,ioos:station:wmo:42373:1,2020-03-02T21:28:00Z,27.3539,-94.6254,79.0,23.5,242.3,-9999.0,'11111222,11111222,99999999'
Kerr-McGee,ioos:station:wmo:42373:1,2020-03-02T21:48:00Z,27.3539,-94.6254,79.0,24.6,241.6,-9999.0,'11111222,11111222,99999999'
Kerr-McGee,ioos:station:wmo:42373:1,2020-03-02T22:08:00Z,27.3539,-94.6254,79.0,21.6,238.2,-9999.0,'11111222,11111222,99999999'
Kerr-McGee,ioos:station:wmo:42373:1,2020-03-02T22:28:00Z,27.3539,-94.6254,79.0,23.7,238.1,-9999.0,'11111222,11111222,99999999'
Kerr-McGee,ioos:station:wmo:42373:1,2020-03-02T22:48:00Z,27.3539,-94.6254,79.0,23.0,234.0,-9999.0,'11111222,11111222,99999999'
Kerr-McGee,ioos:station:wmo:42373:1,2020-03-02T23:08:00Z,27.3539,-94.6254,79.0,26.0,236.1,-9999.0,'11111222,11111222,99999999'
Kerr-McGee,ioos:station:wmo:42373:1,2020-03-02T23:28:00Z,27.3539,-94.6254,79.0,26.0,235.3,-9999.0,'11111222,11111222,99999999'
Kerr-McGee,ioos:station:wmo:42373:1,2020-03-02T23:48:00Z,27.3539,-94.6254,79.0,28.0,236.4,-9999.0,'11111222,11111222,99999999'
Kerr-McGee,ioos:station:wmo:42373:1,2020-03-03T00:08:00Z,27.3539,-94.6254,79.0,27.8,235.6,-9999.0,'11111222,11111222,99999999'
Kerr-McGee,ioos:station:wmo:42373:1,2020-03-03T00:28:00Z,27.3539,-94.6254,79.0,27.5,234.6,-9999.0,'11111222,11111222,99999999'
Kerr-McGee,ioos:station:wmo:42373:1,2020-03-03T00:48:00Z,27.3539,-94.6254,79.0,26.1,232.2,-9999.0,'11111222,11111222,99999999'
Kerr-McGee,ioos:station:wmo:42373:1,2020-03-03T01:08:00Z,27.3539,-94.6254,79.0,26.4,233.2,-9999.0,'11111222,11111222,99999999'
Kerr-McGee,ioos:station:wmo:42373:1,2020-03-03T01:28:00Z,27.3539,-94.6254,79.0,28.7,232.4,-9999.0,'11111222,11111222,99999999'
Kerr-McGee,ioos:station:wmo:42373:1,2020-03-03T01:48:00Z,27.3539,-94.6254,79.0,29.3,231.8,-9999.0,'11111222,11111222,99999999'
Kerr-McGee,ioos:station:wmo:42373:1,2020-03-03T02:08:00Z,27.3539,-94.6254,79.0,29.6,231.0,-9999.0,'11111222,11111222,99999999'
Kerr-McGee,ioos:station:wmo:42373:1,2020-03-03T02:28:00Z,27.3539,-94.6254,79.0,29.6,231.3,-9999.0,'11111222,11111222,99999999'
Kerr-McGee,ioos:station:wmo:42373:1,2020-03-03T02:48:00Z,27.3539,-94.6254,79.0,30.3,232.1,-9999.0,'11111222,11111222,99999999'
Kerr-McGee,ioos:station:wmo:42373:1,2020-03-03T03:08:00Z,27.3539,-94.6254,79.0,30.7,235.9,-9999.0,'11111222,11111222,99999999'
Kerr-McGee,ioos:station:wmo:42373:1,2020-03-03T03:28:00Z,27.3539,-94.6254,79.0,30.9,239.2,-9999.0,'11111222,11111222,99999999'
Kerr-McGee,ioos:station:wmo:42373:1,2020-03-03T03:48:00Z,27.3539,-94.6254,79.0,30.9,240.4,-9999.0,'11111222,11111222,99999999'
Kerr-McGee,ioos:station:wmo:42373:1,2020-03-03T04:08:00Z,27.3539,-94.6254,79.0,31.6,239.6,-9999.0,'11111222,11111222,99999999'
Kerr-McGee,ioos:station:wmo:42373:1,2020-03-03T04:28:00Z,27.3539,-94.6254,79.0,31.8,240.4,-9999.0,'11111222,11111222,99999999'
Kerr-McGee,ioos:station:wmo:42373:1,2020-03-03T04:48:00Z,27.3539,-94.6254,79.0,31.5,241.3,-9999.0,'11111222,11111222,99999999'
Kerr-McGee,ioos:station:wmo:42373:1,2020-03-03T05:08:00Z,27.3539,-94.6254,79.0,32.0,242.1,-9999.0,'11111222,11111222,99999999'
Kerr-McGee,ioos:station:wmo:42373:1,2020-03-03T05:28:00Z,27.3539,-94.6254,79.0,31.3,241.1,-9999.0,'11111222,11111222,99999999'
Kerr-McGee,ioos:station:wmo:42373:1,2020-03-03T05:48:00Z,27.3539,-94.6254,79.0,31.6,241.9,-9999.0,'11111222,11111222,99999999'
Kerr-McGee,ioos:station:wmo:42373:1,2020-03-03T06:08:00Z,27.3539,-94.6254,79.0,31.2,241.5,-9999.0,'11111222,11111222,99999999'
Kerr-McGee,ioos:station:wmo:42373:1,2020-03-03T06:28:00Z,27.3539,-94.6254,79.0,32.1,243.4,-9999.0,'11111222,11111222,99999999'
Kerr-McGee,ioos:station:wmo:42373:1,2020-03-03T06:48:00Z,27.3539,-94.6254,79.0,31.2,243.5,-9999.0,'11111222,11111222,99999999'
Kerr-McGee,ioos:station:wmo:42373:1,2020-03-03T07:08:00Z,27.3539,-94.6254,79.0,31.2,239.4,-9999.0,'11111222,11111222,99999999'
Kerr-McGee,ioos:station:wmo:42373:1,2020-03-03T07:28:00Z,27.3539,-94.6254,79.0,28.3,244.7,-9999.0,'11111222,11111222,99999999'
Kerr-McGee,ioos:station:wmo:42373:1,2020-03-03T07:48:00Z,27.3539,-94.6254,79.0,27.9,243.2,-9999.0,'11111222,11111222,99999999'
Kerr-McGee,ioos:station:wmo:42373:1,2020-03-03T08:08:00Z,27.3539,-94.6254,79.0,28.9,244.8,-9999.0,'11111222,11111222,99999999'
Kerr-McGee,ioos:station:wmo:42373:1,2020-03-03T08:28:00Z,27.3539,-94.6254,79.0,28.1,244.5,-9999.0,'11111222,11111222,99999999'
Kerr-McGee,ioos:station:wmo:42373:1,2020-03-03T08:48:00Z,27.3539,-94.6254,79.0,27.5,244.4,-9999.0,'11111222,11111222,99999999'
Kerr-McGee,ioos:station:wmo:42373:1,2020-03-03T09:08:00Z,27.3539,-94.6254,79.0,26.9,244.2,-9999.0,'11111222,11111222,99999999'
Kerr-McGee,ioos:station:wmo:42373:1,2020-03-03T09:28:00Z,27.3539,-94.6254,79.0,27.5,243.0,-9999.0,'11111222,11111222,99999999'
Kerr-McGee,ioos:station:wmo:42373:1,2020-03-03T09:48:00Z,27.3539,-94.6254,79.0,26.9,242.8,-9999.0,'11111222,11111222,99999999'
Kerr-McGee,ioos:station:wmo:42373:1,2020-03-03T10:08:00Z,27.3539,-94.6254,79.0,26.4,242.8,-9999.0,'11111222,11111222,99999999'
Kerr-McGee,ioos:station:wmo:42373:1,2020-03-03T10:28:00Z,27.3539,-94.6254,79.0,27.5,241.6,-9999.0,'11111222,11111222,99999999'
Kerr-McGee,ioos:station:wmo:42373:1,2020-03-03T10:48:00Z,27.3539,-94.6254,79.0,28.5,242.9,-9999.0,'11111222,11111222,99999999'
Kerr-McGee,ioos:station:wmo:42373:1,2020-03-03T11:08:00Z,27.3539,-94.6254,79.0,27.2,243.3,-9999.0,'11111222,11111222,99999999'
Kerr-McGee,ioos:station:wmo:42373:1,2020-03-03T11:28:00Z,27.3539,-94.6254,79.0,25.8,243.7,-9999.0,'11111222,11111222,99999999'
Kerr-McGee,ioos:station:wmo:42373:1,2020-03-03T11:48:00Z,27.3539,-94.6254,79.0,24.7,245.4,-9999.0,'11111222,11111222,99999999'
Kerr-McGee,ioos:station:wmo:42373:1,2020-03-03T12:08:00Z,27.3539,-94.6254,79.0,23.7,245.1,-9999.0,'11111222,11111222,99999999'
Kerr-McGee,ioos:station:wmo:42373:1,2020-03-03T12:28:00Z,27.3539,-94.6254,79.0,25.4,244.1,-9999.0,'11111222,11111222,99999999'
Kerr-McGee,ioos:station:wmo:42373:1,2020-03-03T12:48:00Z,27.3539,-94.6254,79.0,24.8,242.9,-9999.0,'11111222,11111222,99999999'
Kerr-McGee,ioos:station:wmo:42373:1,2020-03-03T13:08:00Z,27.3539,-94.6254,79.0,23.4,243.3,-9999.0,'11111222,11111222,99999999'
Kerr-McGee,ioos:station:wmo:42373:1,2020-03-03T13:28:00Z,27.3539,-94.6254,79.0,22.4,241.7,-9999.0,'11111222,11111222,99999999'
Kerr-McGee,ioos:station:wmo:42373:1,2020-03-03T13:48:00Z,27.3539,-94.6254,79.0,25.0,239.4,-9999.0,'11111222,11111222,99999999'